Miscellaneous Local Product
Issued by NWS Hastings, NE

Home | Current Version | Previous Version | Graphics & Text | Print | Product List | Glossary On
Versions: 1 2 3 4 5 6 7 8 9 10 11 12 13 14 15 16 17 18 19 20 21 22 23 24 25 26 27 28 29 30 31 32 33 34 35 36 37 38 39 40 41 42 43 44 45 46 47 48 49 50
000
AXUS43 KGID 240202
MISGRI

GID CWA HOURLY WEATHER ROUNDUP
NATIONAL WEATHER SERVICE HASTINGS NE
900 PM CDT WED JUL 23 2014

NOTE: "FAIR" INDICATES FEW OR NO CLOUDS BELOW 12,000 FEET WITH NO
SIGNIFICANT WEATHER AND/OR OBSTRUCTIONS TO VISIBILITY.

...SOUTH CENTRAL NEBRASKA...

CITY           SKY/WX    TMP DP  RH WIND       PRES   REMARKS
GRAND ISLAND   CLEAR     74  62  66 SE3       30.17S
HASTINGS       CLEAR     75  58  55 SE6       30.18R
KEARNEY        CLEAR     73  63  68 E8        30.18S
ORD            CLEAR     74  60  61 SE5       30.16S
YORK           CLEAR     72  64  78 NE7       30.16S
AURORA         CLEAR     73  65  77 E5        30.17R
LEXINGTON      CLEAR     75  63  65 E8        30.17S
HOLDREGE       CLEAR     73  64  75 E9        30.17S
HEBRON         CLEAR     72  63  71 CALM      30.16R

...NEBRASKA PANHANDLE...

CITY           SKY/WX    TMP DP  RH WIND       PRES   REMARKS
CHADRON        PTCLDY    89  65  44 S9        30.03F HX  91
ALLIANCE       MOCLDY    84  64  50 SE15      30.12S
SCOTTSBLUFF    MOCLDY    84  69  60 SE9       30.10F
SIDNEY         CLEAR     87  61  41 SE15      30.16F

...WESTERN AND NORTH CENTRAL NEBRASKA...

CITY           SKY/WX    TMP DP  RH WIND       PRES   REMARKS
VALENTINE      CLEAR     80  58  46 SE13      30.13S
AINSWORTH      CLEAR     76  55  49 SE10      30.16S
ONEILL         CLEAR     74  58  56 E8        30.17S
BROKEN BOW     CLEAR     74  61  63 SE10      30.18S
IMPERIAL       CLEAR     77  63  61 SE16      30.15F
NORTH PLATTE   CLEAR     73  63  70 E12       30.17R
MCCOOK         CLEAR     75  65  70 E10       30.16R

...EASTERN NEBRASKA...

CITY           SKY/WX    TMP DP  RH WIND       PRES   REMARKS
NORFOLK        CLEAR     74  60  61 E3        30.16S
SO SIOUX CITY  CLEAR     76  59  55 E5        30.15S
TEKAMAH        CLEAR     74  63  68 E5        30.14S
COLUMBUS       CLEAR     72  61  68 E5        30.16R
ALBION         CLEAR     72  60  66 E6        30.17S
OMAHA EPPLEY   PTCLDY    78  61  55 NE5       30.14S
OFFUTT AFB     CLEAR     74  64  70 N1        30.14R
MILLARD        CLEAR     79  61  55 CALM      30.14R
LINCOLN        CLEAR     77  60  55 NE8       30.15R
NEBRASKA CITY  CLEAR     73  61  65 CALM      30.15R
BEATRICE         N/A     75  64  67 CALM      30.15R HAZE
FALLS CITY     CLEAR     76  66  71 E3        30.13R

...NORTHERN KANSAS...

CITY           SKY/WX    TMP DP  RH WIND       PRES   REMARKS
GOODLAND       PTCLDY    79  63  57 SE7       30.18S
HILL CITY      CLEAR     78  65  63 E9        30.15R
NORTON         CLEAR     75  61  60 E8        30.15F
SMITH CENTER   CLEAR     73  64  73 NE7       30.15S
HAYS           CLEAR     79  61  53 E14       30.14R
RUSSELL        CLEAR     78  64  61 NE7       30.12R
CONCORDIA      CLEAR     78  62  57 E5        30.14R
SALINA         CLEAR     86  62  44 E9        30.11R
TOPEKA         CLEAR     80  66  62 NE5       30.12R



USA.gov is the U.S. government's official web portal to all federal, state and local government web resources and services.